Darstellungsparameter: Aktuell verwendete Einstellungen:
Skalierung der Graphiken ... ?
xyx+y,   Skalierungsfaktor:      Skalierung: Modus: x, Faktor: 1
Darstellungszeitraum ... ?
Vom - - bis: - -   Zeitraum: 10.08.2022 - 10.08.2022
Min/Max/Avg-Anzeige ... ?
Zeige MMA aktuell
Zeige MMA Monat
Zeige MMA alles
Zeige --A aktuell
Zeige --A Monat
Zeige --A alles
Keine MMA-Anzeige
MMA:
Keine MMA-Graphiken
MMA-Basis: 10.08.2022 - 10.08.2022
Quicknavigation für Darstellung... ?
Tage:      1T, 2T, 3T, 5T -1T -2T -3T -5T +1T +2T +3T +5T
Wochen: 1W, 2W, 3W -1W -2W -3W +1W +2W +3W
Monate: 1M, 3M, 6M -1M -3M -6M +1M +3M +6M
Jahre:    1J, 3J, 5J, 10J -1J -3J -5J -10J +1J +3J +5J +10J
Nutze für die Darstellung ... ?
Originaldaten oder Mittelwerte auf ...
Stundenbasis Tagesbasis Wochenbasis
Monatsbasis Jahresbasis      Datenbasis: Original-Daten
Darstellen als:
Statistik (Auto) Statistik J:M      Darstellung:

Der gewünschte Datumsbereich war nicht gültig/verfügbar und wurde korrigiert....
Das angegebene Enddatum (21.05.2027 23:59:59) liegt in der Zukunft.
Das angegebene Startdatum (21.05.2027 00:00:00) liegt in der Zukunft.


Zur Graphik,    zurück zur Übersicht aller Sensoren.
 
Tabellarische Datenbersicht: ?
 
Sensor: Nr:Datum:Temp:Abs-Feuchte:Windchill:Wind:
Aussen-T/F 1 10-08-2022 02:00:00 18.6 C 10.66 g/m*3 18.6 C 0 km/h
2 10-08-2022 02:05:00 18.5 C 10.6 g/m*3 18.5 C 0 km/h
3 10-08-2022 02:10:00 18.4 C 10.54 g/m*3 18.4 C 0 km/h
4 10-08-2022 02:15:00 18.3 C 10.48 g/m*3 18.3 C 0 km/h
5 10-08-2022 02:20:00 18.2 C 10.57 g/m*3 18.2 C 0 km/h
6 10-08-2022 02:25:00 18.2 C 10.57 g/m*3 18.2 C 0 km/h
7 10-08-2022 02:30:00 18.1 C 10.51 g/m*3 18.1 C 1.6 km/h
8 10-08-2022 02:35:00 17.9 C 10.38 g/m*3 17.9 C 1.6 km/h
9 10-08-2022 02:40:00 17.8 C 10.47 g/m*3 17.8 C 0 km/h
10 10-08-2022 02:45:00 17.8 C 10.47 g/m*3 17.8 C 1.6 km/h
11 10-08-2022 02:50:00 17.7 C 10.41 g/m*3 17.7 C 1.6 km/h
12 10-08-2022 02:55:00 17.7 C 10.41 g/m*3 17.7 C 1.6 km/h
13 10-08-2022 03:00:00 17.7 C 10.56 g/m*3 17.7 C 1.6 km/h
14 10-08-2022 03:05:00 17.6 C 10.5 g/m*3 17.6 C 0 km/h
15 10-08-2022 03:10:00 17.6 C 10.5 g/m*3 17.6 C 1.6 km/h
16 10-08-2022 03:15:00 17.6 C 10.5 g/m*3 17.6 C 1.6 km/h
17 10-08-2022 03:20:00 17.5 C 10.44 g/m*3 17.5 C 1.6 km/h
18 10-08-2022 03:25:00 17.4 C 10.37 g/m*3 17.4 C 0 km/h
19 10-08-2022 03:30:00 17.4 C 10.37 g/m*3 17.4 C 1.6 km/h
20 10-08-2022 03:35:00 17.3 C 10.31 g/m*3 17.3 C 1.6 km/h
21 10-08-2022 03:40:00 17.3 C 10.31 g/m*3 17.3 C 0 km/h
22 10-08-2022 03:45:00 17.3 C 10.31 g/m*3 17.3 C 0 km/h
23 10-08-2022 03:50:00 17.2 C 10.4 g/m*3 17.2 C 0 km/h
24 10-08-2022 03:55:00 17.1 C 10.34 g/m*3 17.1 C 1.6 km/h
25 10-08-2022 04:00:00 17 C 10.27 g/m*3 17 C 0 km/h
Sensor: Nr:Datum:Temp:Abs-Feuchte:Windchill:Wind:
Aussen-T/F 26 10-08-2022 04:05:00 16.9 C 10.21 g/m*3 16.9 C 1.6 km/h
27 10-08-2022 04:10:00 16.9 C 10.36 g/m*3 16.9 C 0 km/h
28 10-08-2022 04:15:00 16.9 C 10.36 g/m*3 16.9 C 0 km/h
29 10-08-2022 04:20:00 16.8 C 10.29 g/m*3 16.8 C 1.6 km/h
30 10-08-2022 04:25:00 16.7 C 10.23 g/m*3 16.7 C 0 km/h
31 10-08-2022 04:30:00 16.6 C 10.17 g/m*3 16.6 C 3.2 km/h
32 10-08-2022 04:35:00 16.5 C 10.25 g/m*3 16.5 C 0 km/h
33 10-08-2022 04:40:00 16.4 C 10.19 g/m*3 16.4 C 0 km/h
34 10-08-2022 04:45:00 16.3 C 10.13 g/m*3 16.3 C 0 km/h
35 10-08-2022 04:50:00 16.2 C 10.07 g/m*3 16.2 C 1.6 km/h
36 10-08-2022 04:55:00 16.1 C 10.14 g/m*3 16.1 C 0 km/h
37 10-08-2022 05:00:00 16 C 10.08 g/m*3 16 C 1.6 km/h
38 10-08-2022 05:05:00 15.9 C 10.16 g/m*3 15.9 C 3.2 km/h
39 10-08-2022 05:10:00 15.8 C 10.1 g/m*3 15.8 C 3.2 km/h
40 10-08-2022 05:15:00 15.8 C 10.1 g/m*3 15.8 C 3.2 km/h
41 10-08-2022 05:20:00 15.8 C 10.1 g/m*3 15.8 C 0 km/h
42 10-08-2022 05:25:00 15.7 C 10.03 g/m*3 15.7 C 1.6 km/h
43 10-08-2022 05:30:00 15.7 C 10.03 g/m*3 15.7 C 0 km/h
44 10-08-2022 05:35:00 15.6 C 9.97 g/m*3 15.6 C 0 km/h
45 10-08-2022 05:40:00 15.5 C 9.91 g/m*3 15.5 C 0 km/h
46 10-08-2022 05:45:00 15.4 C 9.85 g/m*3 15.4 C 0 km/h
47 10-08-2022 05:50:00 15.3 C 9.92 g/m*3 15.3 C 0 km/h
48 10-08-2022 05:55:00 15.3 C 9.92 g/m*3 15.3 C 1.6 km/h
49 10-08-2022 06:00:00 15.2 C 9.86 g/m*3 15.2 C 0 km/h
50 10-08-2022 06:05:00 15.1 C 9.93 g/m*3 15.1 C 0 km/h
Sensor: Nr:Datum:Temp:Abs-Feuchte:Windchill:Wind:
Aussen-T/F 51 10-08-2022 06:10:00 15 C 9.87 g/m*3 15 C 0 km/h
52 10-08-2022 06:15:00 14.9 C 9.81 g/m*3 14.9 C 0 km/h
53 10-08-2022 06:20:00 14.8 C 9.88 g/m*3 14.8 C 0 km/h
54 10-08-2022 06:25:00 14.8 C 9.88 g/m*3 14.8 C 0 km/h
55 10-08-2022 06:30:00 14.8 C 9.88 g/m*3 14.8 C 0 km/h
56 10-08-2022 06:35:00 14.7 C 9.95 g/m*3 14.7 C 0 km/h
57 10-08-2022 06:40:00 14.7 C 9.95 g/m*3 14.7 C 0 km/h
58 10-08-2022 06:45:00 14.7 C 9.95 g/m*3 14.7 C 0 km/h
59 10-08-2022 06:50:00 14.7 C 10.07 g/m*3 14.7 C 0 km/h
60 10-08-2022 06:55:00 14.7 C 10.2 g/m*3 14.7 C 0 km/h
61 10-08-2022 07:00:00 14.7 C 10.07 g/m*3 14.7 C 0 km/h
62 10-08-2022 07:05:00 14.6 C 10.01 g/m*3 14.6 C 0 km/h
63 10-08-2022 07:10:00 14.6 C 10.14 g/m*3 14.6 C 0 km/h
64 10-08-2022 07:15:00 14.5 C 10.07 g/m*3 14.5 C 0 km/h
65 10-08-2022 07:20:00 14.5 C 10.2 g/m*3 14.5 C 0 km/h
66 10-08-2022 07:25:00 14.5 C 10.2 g/m*3 14.5 C 0 km/h
67 10-08-2022 07:30:00 14.5 C 10.2 g/m*3 14.5 C 0 km/h
68 10-08-2022 07:35:00 14.5 C 10.32 g/m*3 14.5 C 0 km/h
69 10-08-2022 07:40:00 14.5 C 10.32 g/m*3 14.5 C 0 km/h
70 10-08-2022 07:45:00 14.5 C 10.45 g/m*3 14.5 C 0 km/h
71 10-08-2022 07:50:00 14.5 C 10.45 g/m*3 14.5 C 0 km/h
72 10-08-2022 07:55:00 14.5 C 10.45 g/m*3 14.5 C 0 km/h
73 10-08-2022 08:00:00 14.6 C 10.51 g/m*3 14.6 C 0 km/h
74 10-08-2022 08:05:00 14.6 C 10.51 g/m*3 14.6 C 0 km/h
75 10-08-2022 08:10:00 14.6 C 10.64 g/m*3 14.6 C 0 km/h
Sensor: Nr:Datum:Temp:Abs-Feuchte:Windchill:Wind:
Aussen-T/F 76 10-08-2022 08:15:00 14.7 C 10.7 g/m*3 14.7 C 0 km/h
77 10-08-2022 08:20:00 14.7 C 10.7 g/m*3 14.7 C 0 km/h
78 10-08-2022 08:25:00 14.8 C 10.77 g/m*3 14.8 C 0 km/h
79 10-08-2022 08:30:00 14.8 C 10.89 g/m*3 14.8 C 0 km/h
80 10-08-2022 08:35:00 14.9 C 10.96 g/m*3 14.9 C 0 km/h
81 10-08-2022 08:40:00 15 C 11.03 g/m*3 15 C 1.6 km/h
82 10-08-2022 08:45:00 15.1 C 11.09 g/m*3 15.1 C 0 km/h
83 10-08-2022 08:50:00 15.2 C 11.16 g/m*3 15.2 C 0 km/h
84 10-08-2022 08:55:00 15.3 C 11.23 g/m*3 15.3 C 0 km/h
85 10-08-2022 09:00:00 15.4 C 11.43 g/m*3 15.4 C 0 km/h
86 10-08-2022 09:05:00 15.6 C 11.44 g/m*3 15.6 C 0 km/h
87 10-08-2022 09:10:00 15.7 C 11.51 g/m*3 15.7 C 0 km/h
88 10-08-2022 09:15:00 15.8 C 11.58 g/m*3 15.8 C 1.6 km/h
89 10-08-2022 09:20:00 16 C 11.72 g/m*3 16 C 0 km/h
90 10-08-2022 09:25:00 16.2 C 11.58 g/m*3 16.2 C 1.6 km/h
91 10-08-2022 09:30:00 16.4 C 11.72 g/m*3 16.4 C 0 km/h
92 10-08-2022 09:35:00 16.7 C 11.8 g/m*3 16.7 C 0 km/h
93 10-08-2022 09:40:00 16.9 C 11.79 g/m*3 16.9 C 3.2 km/h
94 10-08-2022 09:45:00 17.2 C 11.86 g/m*3 17.2 C 3.2 km/h
95 10-08-2022 09:50:00 17.6 C 12 g/m*3 17.6 C 0 km/h
96 10-08-2022 09:55:00 17.9 C 11.76 g/m*3 17.9 C 4.8 km/h
97 10-08-2022 10:00:00 18.4 C 12.11 g/m*3 18.4 C 1.6 km/h
98 10-08-2022 10:05:00 18.7 C 11.85 g/m*3 18.7 C 3.2 km/h
99 10-08-2022 10:10:00 18.9 C 11.83 g/m*3 18.9 C 4.8 km/h
100 10-08-2022 10:15:00 19.3 C 11.94 g/m*3 19.3 C 4.8 km/h
Sensor: Nr:Datum:Temp:Abs-Feuchte:Windchill:Wind:
Aussen-T/F 101 10-08-2022 10:20:00 19.7 C 12.23 g/m*3 19.7 C 1.6 km/h
102 10-08-2022 10:25:00 19.9 C 11.85 g/m*3 19.9 C 1.6 km/h
103 10-08-2022 10:30:00 20.4 C 11.68 g/m*3 20.4 C 4.8 km/h
104 10-08-2022 10:35:00 20.7 C 12.06 g/m*3 20.7 C 1.6 km/h
105 10-08-2022 10:40:00 20.9 C 12.02 g/m*3 20.9 C 1.6 km/h
106 10-08-2022 10:45:00 21.3 C 11.56 g/m*3 21.3 C 6.4 km/h
107 10-08-2022 10:50:00 21.9 C 11.96 g/m*3 21.9 C 6.4 km/h
108 10-08-2022 10:55:00 22.4 C 11.52 g/m*3 22.4 C 4.8 km/h
109 10-08-2022 11:00:00 22.9 C 12.06 g/m*3 22.9 C 3.2 km/h
110 10-08-2022 11:05:00 23.3 C 11.71 g/m*3 23.3 C 4.8 km/h
111 10-08-2022 11:10:00 23.8 C 12.26 g/m*3 23.8 C 4.8 km/h
112 10-08-2022 11:15:00 24.2 C 11.88 g/m*3 24.2 C 4.8 km/h
113 10-08-2022 11:20:00 24.6 C 11.7 g/m*3 24.6 C 4.8 km/h
114 10-08-2022 11:25:00 25 C 11.28 g/m*3 25 C 4.8 km/h
115 10-08-2022 11:30:00 25.4 C 10.59 g/m*3 25.4 C 9.7 km/h
116 10-08-2022 11:35:00 25.8 C 10.83 g/m*3 25.8 C 11.3 km/h
117 10-08-2022 11:40:00 26.1 C 10.28 g/m*3 26.1 C 12.9 km/h
118 10-08-2022 11:45:00 26.3 C 10.64 g/m*3 26.3 C 9.7 km/h
119 10-08-2022 11:50:00 26.6 C 10.07 g/m*3 26.6 C 12.9 km/h
120 10-08-2022 11:55:00 26.8 C 10.18 g/m*3 26.8 C 6.4 km/h
121 10-08-2022 12:00:00 27.1 C 10.61 g/m*3 27.1 C 4.8 km/h
122 10-08-2022 12:05:00 27.3 C 9.94 g/m*3 27.3 C 11.3 km/h
123 10-08-2022 12:10:00 27.6 C 10.38 g/m*3 27.6 C 14.5 km/h
124 10-08-2022 12:15:00 27.8 C 9.95 g/m*3 27.8 C 6.4 km/h
125 10-08-2022 12:20:00 28.1 C 10.12 g/m*3 28.1 C 9.7 km/h
Sensor: Nr:Datum:Temp:Abs-Feuchte:Windchill:Wind:
Aussen-T/F 126 10-08-2022 12:25:00 28.4 C 10.28 g/m*3 28.4 C 11.3 km/h
127 10-08-2022 12:30:00 28.6 C 9.84 g/m*3 28.6 C 19.3 km/h
128 10-08-2022 12:35:00 28.6 C 10.12 g/m*3 28.6 C 14.5 km/h
129 10-08-2022 12:40:00 28.6 C 9.84 g/m*3 28.6 C 11.3 km/h
130 10-08-2022 12:45:00 28.6 C 9.84 g/m*3 28.6 C 12.9 km/h
131 10-08-2022 12:50:00 28.6 C 9.55 g/m*3 28.6 C 11.3 km/h
132 10-08-2022 12:55:00 28.6 C 9.84 g/m*3 28.6 C 12.9 km/h
133 10-08-2022 13:00:00 28.6 C 9.84 g/m*3 28.6 C 12.9 km/h
134 10-08-2022 13:05:00 28.8 C 9.94 g/m*3 28.8 C 12.9 km/h
135 10-08-2022 13:10:00 29.1 C 9.82 g/m*3 29.1 C 12.9 km/h
136 10-08-2022 13:15:00 29.4 C 10.27 g/m*3 29.4 C 11.3 km/h
137 10-08-2022 13:20:00 29.7 C 9.85 g/m*3 29.7 C 14.5 km/h

Legende:
   Min
   Max


Maximal/Minimal-Werte vom 10.08.2022 - 10.08.2022

Sensor Min Max Avg
Temp
(Aussen-T/F)
14.5 °C
10-08-2022  07:15:00
29.7 °C
10-08-2022  13:20:00
18.75 °C
Abs-Feuchte
(Aussen-T/F)
9.55 g/m*3
10-08-2022  12:50:00
12.26 g/m*3
10-08-2022  11:10:00
10.52 g/m*3
Windchill
(Aussen-T/F)
14.5 C
10-08-2022  07:15:00
29.7 C
10-08-2022  13:20:00
18.61 C

Die Daten stammen von einer Davis Vantage Pro 2 Wetter-Station und werden unter Linux mit der Software wview2wettercgi und aufbereitet. Alle Angaben erfolgen ohne Gewähr für ihre Vollständigkeit oder Richtigkeit.
Kontakt: Rainer Krienke krienke@uni-koblenz.de . Meine Webseiten an der Uni Koblenz oder privat.
Version: $Revision: 0.78 $